EW3456 Weather Reports


Display with metric or nautical units.
time (UTC)temp
F
wind
direction
speed
MPH
gust
MPH
rain 1hr
in
rain 24hr
in
rain mn
in
humidity
%
barometer
mb
20260906063601 74 80 0.0 0.0 0.00 0.00 0.00 93 1010.3
20260906061601 74 80 0.0 0.0 0.00 0.00 0.00 94 1010.6
20260906060602 74 80 0.0 0.0 0.00 0.00 0.00 94 1010.8
20260906055602 74 80 0.0 0.0 0.00 0.00 0.00 94 1010.8
20260906054601 74 80 0.0 0.0 0.00 0.00 0.00 93 1011.0
20260906053602 74 80 0.0 0.0 0.00 0.00 0.00 93 1011.2
20260906052601 74 80 0.0 0.0 0.00 0.00 0.00 93 1011.3
20260906051601 74 80 0.0 0.0 0.00 0.00 0.00 93 1011.5
20260906050602 74 80 0.0 0.0 0.00 0.00 0.00 93 1011.5
20260906045602 74 80 0.0 0.0 0.00 0.00 0.00 93 1011.4
20260906044601 74 80 0.0 0.0 0.00 0.00 0.00 93 1011.4
20260906043602 75 80 0.0 0.0 0.00 0.00 0.00 93 1011.4
20260906041601 75 80 0.0 0.0 0.00 0.00 0.00 93 1011.5
20260906040602 75 80 0.0 0.0 0.00 0.00 0.16 93 1011.3
20260906035602 75 80 0.0 0.0 0.00 0.00 0.16 93 1011.5
20260906034601 75 80 0.0 0.0 0.00 0.00 0.16 93 1011.5
20260906033602 75 80 0.0 0.0 0.00 0.00 0.16 93 1011.4
20260906032602 75 80 0.0 0.0 0.00 0.00 0.16 93 1011.5
20260906031602 75 80 0.0 0.0 0.00 0.00 0.16 93 1011.3
20260906025602 76 80 0.0 0.0 0.00 0.00 0.16 93 1011.3
20260906024602 76 80 0.0 0.0 0.00 0.00 0.16 93 1011.3
20260906023602 76 80 0.0 0.0 0.00 0.00 0.16 93 1011.2
20260906022602 76 80 0.0 0.0 0.00 0.00 0.16 93 1011.3
20260906021602 76 80 0.0 0.0 0.00 0.00 0.16 93 1011.2
20260906020601 76 80 0.0 0.0 0.00 0.00 0.16 93 1011.2
20260906015602 76 80 0.0 0.0 0.00 0.00 0.16 93 1011.2
20260906014601 76 80 0.0 0.0 0.00 0.00 0.16 93 1011.3
20260906013602 76 80 0.0 1.0 0.00 0.00 0.16 93 1011.4
20260906012602 76 80 0.0 0.0 0.00 0.00 0.16 93 1011.1
20260906011602 77 80 0.0 0.0 0.00 0.00 0.16 93 1010.9
20260906005601 77 80 0.0 0.0 0.00 0.00 0.16 93 1010.7
20260906003602 77 80 0.0 0.0 0.00 0.00 0.16 93 1010.3
20260906000602 78 80 0.0 1.0 0.00 0.00 0.16 93 1010.4
20260905235601 77 84 0.0 1.0 0.00 0.00 0.16 93 1010.3
20260905234602 77 102 0.0 1.0 0.00 0.00 0.16 92 1010.1
20260905233601 77 110 0.0 0.0 0.00 0.00 0.16 92 1009.9
20260905232601 77 108 0.0 1.0 0.00 0.00 0.16 92 1010.1
20260905231601 77 109 0.0 0.0 0.00 0.00 0.16 92 1010.2
20260905230601 77 109 0.0 0.0 0.00 0.00 0.16 92 1010.0
20260905225602 77 109 0.0 0.0 0.00 0.00 0.16 92 1010.0
20260905224601 77 109 0.0 0.0 0.00 0.00 0.16 92 1010.1
20260905222602 78 109 0.0 0.0 0.00 0.00 0.16 92 1010.2
20260905221601 77 109 0.0 0.0 0.00 0.00 0.16 92 1010.1
20260905215602 78 247 0.0 0.0 0.00 0.00 0.16 91 1009.9
20260905213601 78 293 0.0 0.0 0.00 0.00 0.16 91 1010.1
20260905212602 78 293 0.0 0.0 0.00 0.00 0.16 91 1010.1
20260905211601 78 317 0.0 1.0 0.00 0.00 0.16 90 1010.1
20260905210602 78 309 0.0 1.0 0.00 0.00 0.16 89 1010.4
20260905205602 79 309 0.0 0.0 0.00 0.00 0.15 85 1010.3
20260905204602 80 308 0.0 0.0 0.00 0.00 0.15 82 1010.4
20260905203601 81 305 0.0 0.0 0.00 0.00 0.14 80 1010.7
20260905202601 83 305 0.0 1.0 0.00 0.00 0.13 78 1010.5
20260905200601 87 252 0.0 2.0 0.00 0.00 0.07 69 1011.2
20260905195602 91 244 1.0 4.0 0.00 0.00 0.00 60 1010.4
20260905194602 92 108 0.0 0.0 0.00 0.00 0.00 59 1009.7
20260905193601 93 108 0.0 1.0 0.00 0.00 0.00 57 1009.7
20260905192602 94 108 0.0 0.0 0.00 0.00 0.00 52 1009.4
20260905191602 97 101 0.0 1.0 0.00 0.00 0.00 51 1009.5
20260905185601 98 71 0.0 1.0 0.00 0.00 0.00 49 1009.4
20260905184601 97 98 0.0 2.0 0.00 0.00 0.00 50 1009.5
20260905183602 96 101 1.0 4.0 0.00 0.00 0.00 50 1009.7
20260905182602 96 33 0.0 1.0 0.00 0.00 0.00 52 1009.7
20260905181601 96 175 0.0 2.0 0.00 0.00 0.00 51 1010.0
20260905180602 96 99 1.0 4.0 0.00 0.00 0.00 52 1010.2
20260905175602 95 88 0.0 3.0 0.00 0.00 0.00 54 1010.5
20260905174602 95 87 0.0 2.0 0.00 0.00 0.00 54 1010.7
20260905173601 95 88 0.0 1.0 0.00 0.00 0.00 55 1010.8
20260905172602 94 205 1.0 4.0 0.00 0.00 0.00 55 1011.0
20260905171601 95 115 1.0 4.0 0.00 0.00 0.00 56 1011.0
20260905170601 93 309 0.0 2.0 0.00 0.00 0.00 61 1011.3
20260905164601 93 299 0.0 1.0 0.00 0.00 0.00 63 1011.7
20260905163602 92 346 0.0 1.0 0.00 0.00 0.00 63 1011.9
20260905162602 92 90 0.0 1.0 0.00 0.00 0.00 66 1012.1
20260905161602 91 212 0.0 1.0 0.00 0.00 0.00 66 1012.1
20260905160602 91 214 0.0 1.0 0.00 0.00 0.00 68 1012.1
20260905154602 90 217 0.0 2.0 0.00 0.00 0.00 68 1012.3
20260905151601 88 320 0.0 0.0 0.00 0.00 0.00 72 1012.5
20260905150601 88 314 0.0 0.0 0.00 0.00 0.00 73 1012.5
20260905145602 87 287 0.0 0.0 0.00 0.00 0.00 73 1012.5
20260905144602 86 351 0.0 0.0 0.00 0.00 0.00 76 1012.6
20260905143602 85 330 0.0 0.0 0.00 0.00 0.00 77 1012.6
20260905142601 85 250 0.0 0.0 0.00 0.00 0.00 77 1012.9
20260905140602 83 282 0.0 0.0 0.00 0.00 0.00 81 1013.0
20260905134602 80 12 0.0 0.0 0.00 0.00 0.00 88 1013.0
20260905133602 79 86 0.0 0.0 0.00 0.00 0.00 89 1013.0
20260905132601 78 86 0.0 0.0 0.00 0.00 0.00 91 1013.1
20260905131601 77 86 0.0 0.0 0.00 0.00 0.00 92 1013.1
20260905130601 77 88 0.0 0.0 0.00 0.00 0.00 92 1013.1
20260905124602 76 91 0.0 0.0 0.00 0.00 0.00 93 1013.1
20260905123601 75 133 0.0 0.0 0.00 0.00 0.00 93 1013.1
20260905122602 75 133 0.0 0.0 0.00 0.00 0.00 93 1013.0
20260905121602 75 133 0.0 0.0 0.00 0.00 0.00 93 1012.9
20260905120601 74 133 0.0 0.0 0.00 0.00 0.00 93 1012.9
20260905115602 74 133 0.0 0.0 0.00 0.00 0.00 92 1013.0
20260905114602 74 133 0.0 0.0 0.00 0.00 0.00 92 1012.7
20260905111602 74 133 0.0 0.0 0.00 0.00 0.00 91 1012.5
20260905110602 74 133 0.0 0.0 0.00 0.00 0.00 91 1012.4
20260905104601 74 133 0.0 0.0 0.00 0.00 0.00 91 1012.3
20260905103602 74 133 0.0 0.0 0.00 0.00 0.00 91 1012.2
20260905102601 74 133 0.0 0.0 0.00 0.00 0.00 90 1012.1
20260905101602 74 133 0.0 0.0 0.00 0.00 0.00 90 1012.0
20260905095602 75 133 0.0 0.0 0.00 0.00 0.00 90 1011.8
20260905094601 75 133 0.0 0.0 0.00 0.00 0.00 90 1011.8
20260905093601 75 133 0.0 0.0 0.00 0.00 0.00 90 1012.0
20260905092602 75 133 0.0 0.0 0.00 0.00 0.00 90 1012.0
20260905090601 76 133 0.0 0.0 0.00 0.00 0.00 90 1012.1
20260905085602 76 133 0.0 0.0 0.00 0.00 0.00 90 1012.0
20260905084601 76 133 0.0 0.0 0.00 0.00 0.00 90 1012.1
20260905083601 76 133 0.0 0.0 0.00 0.00 0.00 90 1012.3
20260905082601 76 133 0.0 0.0 0.00 0.00 0.00 90 1012.3
20260905081602 76 133 0.0 0.0 0.00 0.00 0.00 90 1012.3
20260905080601 76 133 0.0 0.0 0.00 0.00 0.00 89 1012.2
20260905075602 77 133 0.0 0.0 0.00 0.00 0.00 89 1012.3
20260905074601 77 133 0.0 0.0 0.00 0.00 0.00 89 1012.4
20260905073601 77 133 0.0 0.0 0.00 0.00 0.00 89 1012.4
20260905072602 77 133 0.0 0.0 0.00 0.00 0.00 89 1012.5
20260905071601 77 133 0.0 0.0 0.00 0.00 0.00 89 1012.4
20260905070602 77 133 0.0 0.0 0.00 0.00 0.00 88 1012.5
20260905065602 78 133 0.0 0.0 0.00 0.00 0.00 87 1012.5